AC4VM Weather Reports


time (UTC)temp
C
wind
direction
speed
KPH
gust
KPH
rain 1hr
cm
rain 24hr
cm
rain mn
cm
humidity
%
barometer
mb
20260505124523 14 0.0 0.0 0.00 0.00 0.00 77 1013.0
20260505123021 13 214 0.0 4.8 0.00 0.00 0.00 81 1013.0
20260505121520 12 273 0.0 0.0 0.00 0.00 0.00 84 1012.7
20260505120034 11 273 0.0 1.6 0.00 0.00 0.00 86 1012.8
20260505114519 10 274 0.0 0.0 0.00 0.00 0.00 89 1012.8
20260505113016 9 274 0.0 0.0 0.00 0.00 0.00 89 1012.5
20260505111524 8 274 0.0 1.6 0.00 0.00 0.00 90 1012.2
20260505101509 8 266 0.0 3.2 0.00 0.00 0.00 89 1012.0
20260505100007 9 262 1.6 8.0 0.00 0.00 0.00 88 1012.1
20260505094506 9 2 0.0 3.2 0.00 0.00 0.00 87 1011.9
20260505093004 10 280 0.0 3.2 0.00 0.00 0.00 87 1012.0
20260505091621 10 280 0.0 3.2 0.00 0.00 0.00 85 1011.9
20260505090122 10 280 1.6 4.8 0.00 0.00 0.00 85 1011.9
20260505084614 10 280 0.0 3.2 0.00 0.00 0.00 85 1011.8
20260505083108 10 280 0.0 1.6 0.00 0.00 0.00 84 1011.8
20260505081601 11 280 1.6 4.8 0.00 0.00 0.00 82 1011.4
20260505080059 11 255 1.6 6.4 0.00 0.00 0.00 81 1011.4
20260505074547 12 244 0.0 0.0 0.00 0.00 0.00 78 1011.3
20260505073052 12 244 0.0 0.0 0.00 0.00 0.00 76 1011.3
20260505071547 13 243 0.0 1.6 0.00 0.00 0.00 74 1011.3
20260505070044 14 243 0.0 0.0 0.00 0.00 0.00 70 1011.5
20260505064537 14 243 0.0 0.0 0.00 0.00 0.00 69 1011.5
20260505063040 15 243 0.0 3.2 0.00 0.00 0.00 67 1011.6
20260505061535 15 242 0.0 0.0 0.00 0.00 0.00 69 1011.4
20260505060053 15 242 0.0 0.0 0.00 0.00 0.00 68 1011.4
20260505054533 16 242 1.6 3.2 0.00 0.00 0.00 68 1011.5
20260505053037 16 237 0.0 3.2 0.00 0.00 0.00 67 1011.4
20260505051530 16 245 1.6 4.8 0.00 0.00 0.00 68 1011.3
20260505041529 15 246 0.0 1.6 0.00 0.00 0.00 67 1011.2
20260505040024 15 246 0.0 3.2 0.00 0.00 0.00 68 1011.2
20260505034522 17 244 1.6 4.8 0.00 0.00 0.00 61 1011.2
20260505033021 17 243 1.6 3.2 0.00 0.00 0.00 60 1011.3
20260505031520 17 243 0.0 3.2 0.00 0.00 0.00 58 1011.4
20260505030020 17 241 1.6 3.2 0.00 0.00 0.00 57 1011.3
20260505024520 17 241 1.6 4.8 0.00 0.00 0.00 56 1011.5
20260505023021 18 240 1.6 3.2 0.00 0.00 0.00 56 1011.5
20260505021519 18 236 1.6 4.8 0.00 0.00 0.00 55 1011.4
20260505020027 18 256 0.0 3.2 0.00 0.00 0.00 55 1011.4
20260505014531 19 223 0.0 4.8 0.00 0.00 0.00 54 1011.2
20260505013023 19 231 3.2 12.9 0.00 0.00 0.00 54 1011.3
20260505011520 20 221 0.0 8.0 0.00 0.00 0.00 53 1011.1
20260505010017 20 204 1.6 16.1 0.00 0.00 0.00 55 1011.0
20260505004516 20 235 1.6 4.8 0.00 0.00 0.00 56 1011.0
20260505003023 20 220 0.0 3.2 0.00 0.00 0.00 55 1010.7
20260505001515 21 233 1.6 9.7 0.00 0.00 0.00 55 1010.7
20260505000015 21 130 1.6 8.0 0.00 0.00 0.00 55 1010.8
20260504234514 21 233 0.0 4.8 0.00 0.00 0.00 52 1010.7
20260504233016 22 143 1.6 14.5 0.00 0.00 0.00 50 1010.6
20260504231517 22 238 3.2 8.0 0.00 0.00 0.00 48 1010.6
20260504230013 23 271 3.2 9.7 0.00 0.00 0.00 47 1010.4
20260504224517 23 102 1.6 9.7 0.00 0.00 0.00 48 1010.4
20260504223015 23 238 3.2 12.9 0.00 0.00 0.00 49 1010.5
20260504221509 23 145 1.6 6.4 0.00 0.00 0.00 52 1010.6
20260504220010 23 258 0.0 6.4 0.00 0.00 0.00 49 1010.7
20260504214507 23 214 3.2 6.4 0.00 0.00 0.00 49 1010.8
20260504213018 23 232 1.6 11.3 0.00 0.00 0.00 50 1010.8
20260504211513 23 284 1.6 6.4 0.00 0.00 0.00 44 1010.8
20260504210005 23 137 3.2 24.1 0.00 0.00 0.00 48 1010.9
20260504204503 24 253 3.2 17.7 0.00 0.00 0.00 44 1011.0
20260504203001 25 214 3.2 20.9 0.00 0.00 0.00 49 1011.2
20260504201612 23 146 4.8 11.3 0.00 0.00 0.00 49 1011.3
20260504200057 23 239 1.6 6.4 0.00 0.00 0.00 49 1011.6
20260504194557 23 204 1.6 12.9 0.00 0.00 0.00 50 1012.0
20260504193100 23 227 1.6 8.0 0.00 0.00 0.00 49 1012.2
20260504191607 23 144 3.2 14.5 0.00 0.00 0.00 50 1012.3
20260504190059 22 223 1.6 8.0 0.00 0.00 0.00 52 1012.7
20260504184551 22 261 1.6 11.3 0.00 0.00 0.00 50 1012.8
20260504183042 22 204 1.6 6.4 0.00 0.00 0.00 48 1013.1
20260504181541 22 282 3.2 12.9 0.00 0.00 0.00 49 1013.3
20260504180040 22 260 1.6 9.7 0.00 0.00 0.00 50 1013.5
20260504174543 22 214 1.6 16.1 0.00 0.00 0.00 53 1013.6
20260504173035 22 270 3.2 9.7 0.00 0.00 0.00 56 1013.7
20260504171537 22 273 1.6 12.9 0.00 0.00 0.00 52 1014.0